Location: Olmeneta
(45.2333°N, 10.0167°E)
Time: 17:08:10
(UTC+00:00)

Gbstr 26 Del rocket - Pass Details

Date: 03 March 2021
Orbit: 492 x 1264 km, 51.8° (Epoch: 11 April)

Event Time Altitude Azimuth Distance (km) Brightness Sun altitude
Rises 19:54:51 0° 294° (WNW) 2,953 7.8 -29.3°
Reaches altitude 10° 19:57:02 10° 300° (WNW) 2,140 6.7 -29.7°
Enters shadow 20:01:05 45° 349° (N) 1,053 4.3 -30.3°
